Regional Weather Roundup
Issued by NWS Wakefield, VA

Home | Current Version | Previous Version | Text Only | Print | Product List | Glossary Off
Versions: 1 2 3 4 5 6 7 8 9 10 11 12 13 14 15 16 17 18 19 20 21 22 23 24 25 26 27 28 29 30 31 32 33 34 35 36 37 38 39 40 41 42 43 44 45 46 47 48 49 50

000
ASUS41 KAKQ 280910
RWRAKQ

REGIONAL WEATHER ROUNDUP
NATIONAL WEATHER SERVICE WAKEFIELD VA
400 AM EST FRI NOV 28 2014

Note: "fair" indicates few or no clouds below 12,000 feet with no
significant weather and/or obstructions to visibility. * = Denotes
station may not report precipitation (e.g., rain,snow,etc.),
thunder or fog.

VAZ042-051-052>054-056-281000-
NORTHERN VIRGINIA

CITY           SKY/WX    TMP DP  RH WIND       PRES   REMARKS
WASH NATIONAL  CLEAR     35  21  56 W5        30.23R
DULLES         PTCLDY    30  21  69 W9        30.22R
FORT BELVOIR   CLEAR     32  21  65 W7        30.23S
QUANTICO       CLEAR     33  21  61 CALM      30.25R
FREDERICKSBRG* CLEAR     28  26  91 W7        30.24R
STAFFORD*      CLEAR     26  24  94 CALM      30.28R
WARRENTON      CLEAR     28  25  90 W8        30.23R
CULPEPER*      CLEAR     34  21  60 NW5       30.24R
MANASSAS*      CLEAR     30  23  74 W3        30.23S
LEESBURG*      CLEAR     32  27  80 NW10G18   30.22S WCI  24
WINCHESTER     CLOUDY    34  21  60 W7        30.22R
FRONT ROYAL*   CLOUDY    32  21  64 CALM      30.21S
LURAY*         PTSUNNY   32  27  80 SW7       30.22R
$$

VAZ048-049-060>072-079>083-281000-
CENTRAL AND SOUTH CENTRAL VIRGINIA

CITY           SKY/WX    TMP DP  RH WIND       PRES   REMARKS
RICHMOND       CLEAR     32  24  72 NW6       30.24R
CHESTERFIELD*  SUNNY     27  14  59 CALM      30.25R
PETERSBURG*    CLEAR     32  24  73 W3        30.26R
HANOVER        CLEAR     29  24  82 CALM      30.26R
TAPPAHANNOCK*  CLEAR     32  23  69 W5        30.24R
QUINTON*       SUNNY     31  26  83 CALM      30.24R
CHARLOTTSVILLE CLEAR     30  18  60 CALM      30.23R
GORDONSVILLE*  SUNNY     32  20  60 CALM      30.23S
ORANGE*        CLEAR     32  23  69 SW3       30.24S
LOUISA*        CLEAR     27  23  86 CALM      30.22S
BUMPASS*       SUNNY     28  24  87 CALM      30.24R
FARMVILLE*     CLEAR     30  22  70 CALM      30.25S
CREWE*         SUNNY     32  21  64 NW8       30.25R
FORT PICKETT*  SUNNY     31  22  70 NW9       30.23S
CHASE CITY*    SUNNY     32  24  72 W3        30.26S
CLARKSVILLE*   SUNNY     32  23  69 W6        30.26S
SOUTH HILL*    CLEAR     31  21  65 NW3       30.31R
LAWRENCEVILLE* SUNNY     30  25  80 CALM      30.25R
$$

VAZ088>098-281000-
SOUTHEAST VIRGINIA

CITY           SKY/WX    TMP DP  RH WIND       PRES   REMARKS
NORFOLK        CLEAR     37  26  64 NW7       30.22R
VIRGINIA BEACH MOCLDY    39  29  67 N14G25    30.20R
NORFOLK NAVAL  CLEAR     38  27  64 NW15      30.23R
WEST POINT*    CLEAR     34  26  73 CALM      30.26R
SALUDA*        FAIR      35  23  62 NW14G21   30.22S
NEWPORT NEWS   CLEAR     37  27  67 N10       30.23R
LANGLEY AFB    CLEAR     35  28  76 NW12G23   30.23R
FORT EUSTIS    CLEAR     36  24  62 N9G17     30.22R
WILLIAMSBURG*  CLEAR     34  30  86 N6        30.24R
HR EXEC AP*    SUNNY     30  27  86 W5        30.25R
FRANKLIN*      PTCLDY    30  28  93 NW6       30.25R
WAKEFIELD      CLEAR     33  25  72 NW3       30.24R
$$

VAZ020-022-025-037-045-281000-
WEST CENTRAL AND SOUTHWEST VIRGINIA

CITY           SKY/WX    TMP DP  RH WIND       PRES   REMARKS
STAUNTON*      PTCLDY    23  19  85 CALM      30.24R
WAYNESBORO*    MOSUNNY   27  19  71 W7        30.21R
HOT SPRINGS VA LGT SNOW  19  19  98 W10G20    30.06S WCI   8
LYNCHBURG      PTCLDY    26  20  77 SW3       30.26F
DANVILLE       PTCLDY    30  19  63 NW7       30.28F
SOUTH BOSTON*  SUNNY     31  19  61 CALM      30.28S
MARTINSVILLE   PTCLDY    32  21  65 NW5       30.31S
ROANOKE        MOCLDY    32  17  54 CALM      30.28R
BLACKSBURG     CLOUDY    28  21  74 NW10      30.24S WCI  19
DUBLIN*        CLOUDY    29  17  62 NW12G21   30.25S WCI  19
MARION*        FLURRIES  26  18  71 W13       30.25F WCI  15
HILLSVILLE*    FLURRIES  24  18  78 NW10G16   30.20S WCI  13
RICHLANDS*     FLURRIES  27  22  82 W5        30.24F
WISE*          FLURRIES  27  19  74 W9        30.27F
ABINGDON*      PTCLDY    27  20  77 CALM      30.30S
$$

MDZ021>025-VAZ099-100-281000-
SOUTHERN MARYLAND AND THE DELMARVA PENINSULA

CITY           SKY/WX    TMP DP  RH WIND       PRES   REMARKS
PATUXENT RIVER CLEAR     33  22  63 W10       30.21R WCI  25
BAY BRIDGE APT   N/A     36  23  60 W13G21    30.20R
LEONARDTOWN    CLEAR     32  23  69 W7        30.23R
DOVER          PTCLDY    34  29  80 W12       30.14R
GEORGETOWN     MOCLDY    35  27  72 NW8       30.17R
EASTON         CLEAR     36  26  69 N9        30.22R
CAMBRIDGE      CLEAR     37  25  60 NW17      30.19R
SALISBURY      PTCLDY    37  25  61 NW13      30.17R
OCEAN CITY     MOCLDY    34  28  79 NW9       30.16S
WALLOPS ISLAND CLOUDY    35  30  82 NW3       30.19R
ACCOMACK*      CLOUDY    36  27  69 NW15G22   30.19R
$$

NCZ012>017-030>032-281000-
NORTH CENTRAL AND EASTERN NORTH CAROLINA

CITY           SKY/WX    TMP DP  RH WIND       PRES   REMARKS
ROANOKE RAPIDS SUNNY     32  23  69 NW8       30.26S
RALEIGH        CLEAR     30  21  69 CALM      30.29S
ELIZABETH CITY CLEAR     38  31  76 NW8       30.22R
AHOSKIE*       CLEAR     32  25  75 CALM      30.26R
EDENTON*       CLOUDY    37  29  75 NW9       30.23S
CURRITUCK*     CLEAR     36  31  81 NW3       30.22R
KILL DEVIL HLS CLEAR     39  33  78 NW9       30.18R
MANTEO         CLEAR     40  32  75 NW10G23   30.20R
CAPE HATTERAS  CLEAR     41  32  70 N9G22     30.19R
TARBORO*       SUNNY     31  26  80 W6        30.28R
GOLDSBORO      CLEAR     33  30  86 NW8       30.27R
WASHINGTON     MOCLDY    32  28  82 NW3       30.25S
GREENVILLE     CLEAR     32  27  80 CALM      30.27S
NEW BERN       PTCLDY    36  26  67 NW7       30.26R
WILMINGTON     CLEAR     34  30  85 N5        30.27S
$$

VAZ048-281000-
ELSEWHERE

CITY           SKY/WX    TMP DP  RH WIND       PRES   REMARKS
HARRISBURG PA  PTCLDY    32  22  66 W8        30.15S
BALTIMORE      PTCLDY    32  22  66 W8        30.19R
ANNAPOLIS      CLEAR     35  23  61 W7        30.20R
ANDREWS AFB    CLEAR     33  21  62 W8        30.20R
PHILADELPHIA   MOCLDY    34  27  75 W8        30.14S
WILDWOOD NJ*   CLOUDY    37  25  60 NW14G21   30.13R
HENDERSON NC   CLEAR     32  20  60 NW6       30.27S
GREENSBORO     CLEAR     27  18  69 W7        30.28S
ROCKY MOUNT    CLEAR     33  23  66 W5        30.28R
$$

VAZ100-281000-
MARINE

STATION/POSITION TIME  TEMP    WIND        PRES    WAVE   SWELL
                       AIR SEA DIR/SP/G            HT/PER HT/PER
                 (UTC) (F)     (DEG/KT/KT) (MB)    (FT/S) (FT/S)
CAPE MAY NJ      0900   38 47  310/ 11/ 21 1020.1R
LEWES DE         0900   36 47  300/ 13/ 16 1020.9R
15NM E FENWICK I 0900   40 54              1019.8R   4/ 5
OCEAN-CITY-INLET 0900   36 48  320/  9/ 12 1020.9R
WACHAPREAGUE VA  0900   37 46  300/  5/ 10 1022.3R
THOMAS POINT MD  0900   36 47  300/ 13/ 16 1023.7R
GOOSES REEF MD   0900   37     320/ 16/ 21 1023.0R
COVE POINT MD    0900   35     320/ 11/ 15 1022.7R
SOLOMONS ISLAND  0900      48                N/A
BISHOPS HEAD MD  0900   36 41  320/ 15/ 20 1021.9R
PINEY POINT MD   0900          340/ 20/ 23   N/A
POTOMAC MD       0900   38     330/ 17/ 23 1022.0F
CAMBRIDGE MD     0900   38 44  310/ 17/ 22 1022.2R
LEWISETTA VA     0900   37 45  330/ 21/ 27 1023.1R
RAPPAHANNOCK LGT 0900          320/ 26/ 33 1022.9R
STINGRAY PT      0900   37     330/ 17/ 21 1023.3S
YORK RVR RNG VA  0900   38     350/ 22/ 25 1022.6R
YORKTOWN VA      0900   37 50  340/ 19/ 23 1023.2R
JAMESTOWN VA     0900   35     360/ 10/ 14   N/A
DOMINION TERM VA 0900   38     350/ 15/ 22 1023.2R
KIPTOPEKE VA     0900      53  340/ 24/ 29   N/A
CHES BAY BRIDGE  0900   40 51  320/ 24/ 28 1022.4R
CAPE HENRY VA    0900   40     330/ 26/ 30 1021.5R
CHESAPEAKE LGHT  0800   42     330/ 25/ 28 1022.1R
WILLOUBY STN VA  0900   37     330/ 15/ 19 1021.7R
S CRANEY ISL VA  0900          300/ 12/ 19 1023.0R
CAPE HENRY BUOY  0900      55                N/A     5/ 4
1ST LANDING BUOY 0900   42     340/ 23/ 29 1022.1R
CAPE CHARLES BUO 0900      54                N/A     4/ 3   2/ 8
64NM E OF VA BCH 0900   46 65  330/ 21/ 25 1019.9R   6/ 7   2/14
DUCK PIER NC     0900   40 53  310/ 14/ 19 1021.5R
44100 DUCK FRF   0900      57                N/A     6/ 6
44056 DUCK FRF   0900      54                N/A     5/ 6   2/14
OREGON INLET NC  0900   41 54  320/ 16/ 20 1022.1R
HATTERAS NC      0900   44 56  340/ 21/ 26 1022.5R
DIAMOND SHLS NC  0900   45     320/ 21/ 25 1021.4R   6/ 7   3/ 8
CAPE LOOKOUT NC  0800   40     340/ 16/ 21 1022.8R
$$


USA.gov is the U.S. government's official web portal to all federal, state and local government web resources and services.